Back to catalog

STARLINK-32455

AliveCommunicationsVLEO
NORAD 61632·PAYLOAD·🇺🇸 United States

Launched Oct 23, 2024 from Cape Canaveral Space Force Station

Loading…

Next Passes (next 24 hours)

TLE

FreshSource: CelesTrak SupGP

Epoch: Sep 14, 2026, 20:43 UTC

1 61632C 24191M   26257.86368056 -.00023609  00000+0 -85497-3 0  2573
2 61632  43.0000 169.9077 0001328 264.8762 133.2328 15.27596303    19

Track STARLINK-32455 in real time with AllMySat

Download on the App Store